Weather History for KPCW - February, 2014

Change the Weather History Date:

Sunday, February 9, 2014

  Actual Average (KTOL) Record (KTOL)
Temperature  
Mean Temperature 18 °F 27 °F  
Max Temperature 24 °F 34 °F 62 °F (1966)
Min Temperature 12 °F 20 °F -15 °F (1899)
Degree Days  
Heating Degree Days 47 38  
Month to date heating degree days 348  
Since 1 July heating degree days 3897  
Cooling Degree Days 0 0  
Month to date cooling degree days 0  
Year to date cooling degree days 0  
Moisture  
Dew Point 13 °F    
Average Humidity 80    
Maximum Humidity 93    
Minimum Humidity 63    
Precipitation  
Precipitation 0.00 in 0.07 in 0.98 in (2001)
Month to date precipitation 0.61  
Year to date precipitation 2.66  
Snow  
Snow 0.00 in 0.30 in - ()
Month to date snowfall 3.3  
Since 1 July snowfall 24.4  
Snow Depth -    
Sea Level Pressure  
Sea Level Pressure 30.09 in    
Wind  
Wind Speed 4 mph (WSW)    
Max Wind Speed 14 mph    
Max Gust Speed -    
Visibility 7 miles    
Events Rain , Snow    
T = Trace of Precipitation, MM = Missing Value Source: NWS Daily Summary

Daily Weather History Graph

Daily Weather History Graph

Search for Another Location

Airport or City:

Trip Planner

Search our weather history database for the weather conditions in past years. The results will help you decide how hot, cold, wet, or windy it might be!

Date:

Astronomy

Feb. 09, 2014 Rise Set
Actual Time 7:34 AM EST 5:57 PM EST
Civil Twilight 7:05 AM EST 6:26 PM EST
Nautical Twilight 6:32 AM EST 6:59 PM EST
Astronomical Twilight 6:00 AM EST 7:31 PM EST
Moon 1:35 PM EST (2/9) 3:39 AM EST (2/9)
Length of Visible Light 11h 20m
Length of Day
10h 23m
Waxing Gibbous, 77% of the Moon is Illuminated
Feb 9
Waxing Gibbous
Feb 14
Full
Feb 22
Last Quarter
Mar 1
New
Mar 8
First Quarter

Hourly Weather History & Observations

Time (EST) Temp. Windchill Dew Point Humidity Pressure Visibility Wind Dir Wind Speed Gust Speed Precip Events Conditions
12:14 AM 12.2 °F - 8.6 °F 85% 30.15 in 10.0 mi Calm Calm - N/A Snow Light Snow
12:31 AM 12.2 °F - 8.6 °F 85% 30.15 in 10.0 mi Calm Calm - N/A Snow Light Snow
12:54 AM 12.2 °F - 8.6 °F 85% 30.15 in 10.0 mi Calm Calm - N/A Snow Light Snow
1:14 AM 12.2 °F - 8.6 °F 85% 30.15 in 10.0 mi Calm Calm - N/A Snow Light Snow
1:34 AM 12.2 °F - 8.6 °F 85% 30.12 in 10.0 mi Calm Calm - N/A Rain Light Freezing Rain
1:54 AM 12.2 °F - 8.6 °F 85% 30.12 in 10.0 mi Calm Calm - N/A Rain Light Freezing Rain
2:14 AM 12.2 °F 6.1 °F 10.4 °F 92% 30.11 in 10.0 mi ESE 3.5 mph - N/A Rain Light Freezing Rain
2:34 AM 12.2 °F - 10.4 °F 92% 30.12 in 10.0 mi Calm Calm - N/A   Overcast
2:54 AM 13.1 °F 7.1 °F 10.0 °F 88% 30.11 in 10.0 mi ESE 3.5 mph - N/A Rain Light Freezing Rain
3:14 AM 14.0 °F 8.2 °F 10.4 °F 86% 30.09 in 10.0 mi SE 3.5 mph - N/A Rain Light Freezing Rain
3:25 AM 14.0 °F 8.2 °F 10.4 °F 86% 30.09 in 10.0 mi SE 3.5 mph - N/A Rain Light Freezing Rain
3:54 AM 14.0 °F - 10.4 °F 86% 30.09 in 10.0 mi Calm Calm - N/A Rain Light Freezing Rain
4:14 AM 15.8 °F - 10.4 °F 79% 30.10 in 10.0 mi Calm Calm - N/A   Overcast
4:27 AM 15.8 °F - 12.2 °F 86% 30.10 in 1.5 mi Calm Calm - N/A Snow Light Snow
4:47 AM 15.8 °F - 12.2 °F 86% 30.09 in 1.5 mi Calm Calm - N/A Snow Light Snow
5:14 AM 15.8 °F - 12.2 °F 86% 30.09 in 1.8 mi Calm Calm - N/A Snow Light Snow
5:31 AM 15.8 °F - 12.2 °F 86% 30.09 in 1.5 mi Calm Calm - N/A Snow Light Snow
5:54 AM 15.8 °F - 12.2 °F 86% 30.08 in 1.5 mi Calm Calm - N/A Snow Light Snow
6:05 AM 15.8 °F - 12.2 °F 86% 30.07 in 1.8 mi Calm Calm - N/A Snow Light Snow
6:28 AM 15.8 °F - 12.2 °F 86% 30.06 in 2.0 mi Calm Calm - N/A Snow Light Snow
6:54 AM 15.8 °F - 12.2 °F 86% 30.06 in 1.8 mi Calm Calm - N/A Snow Light Snow
7:13 AM 17.6 °F - 14.0 °F 86% 30.06 in 2.0 mi Calm Calm - N/A Snow Light Snow
7:34 AM 15.8 °F - 12.2 °F 86% 30.04 in 1.5 mi Calm Calm - N/A Snow Light Snow
7:51 AM 15.8 °F - 14.0 °F 93% 30.03 in 1.8 mi Calm Calm - N/A Snow Light Snow
8:08 AM 17.6 °F - 14.0 °F 86% 30.04 in 1.5 mi Calm Calm - N/A Snow Light Snow
8:28 AM 21.2 °F - 17.6 °F 86% 30.05 in 1.5 mi Calm Calm - N/A Snow Light Snow
8:44 AM 21.2 °F 16.4 °F 17.6 °F 86% 30.06 in 0.8 mi West 3.5 mph - N/A Snow Light Snow
9:14 AM 21.2 °F - 17.6 °F 86% 30.03 in 1.0 mi Calm Calm - N/A Snow Light Snow
9:32 AM 21.2 °F 16.4 °F 17.6 °F 86% 30.03 in 1.0 mi West 3.5 mph - N/A Snow Light Snow
9:54 AM 21.2 °F 14.9 °F 17.6 °F 86% 30.02 in 1.5 mi West 4.6 mph - N/A Snow Light Snow
10:11 AM 21.2 °F 13.6 °F 15.8 °F 80% 30.03 in 1.5 mi West 5.8 mph - N/A Snow Light Snow
10:27 AM 19.4 °F 9.5 °F 15.8 °F 86% 30.03 in 1.0 mi WNW 8.1 mph - N/A Snow Light Snow
10:54 AM 19.4 °F 9.5 °F 15.8 °F 86% 30.03 in 1.2 mi West 8.1 mph - N/A Snow Light Snow
10:58 AM 19.4 °F 10.4 °F 15.8 °F 86% 30.03 in 1.2 mi West 6.9 mph - N/A Snow Light Snow
11:24 AM 19.4 °F 9.5 °F 15.8 °F 86% 30.03 in 1.8 mi NW 8.1 mph - N/A Snow Light Snow
11:40 AM 21.2 °F 11.7 °F 17.6 °F 86% 30.03 in 2.5 mi WNW 8.1 mph - N/A Snow Light Snow
12:05 PM 21.2 °F 10.9 °F 15.8 °F 80% - 10.0 mi WNW 9.2 mph - N/A Rain Light Freezing Rain
12:34 PM 21.2 °F 10.1 °F 14.0 °F 74% 30.02 in 10.0 mi WNW 10.4 mph - N/A Rain Light Freezing Rain
12:54 PM 21.2 °F 10.9 °F 15.8 °F 80% 30.01 in 10.0 mi WNW 9.2 mph - N/A Rain Light Freezing Rain
1:14 PM 23.0 °F 13.1 °F 15.8 °F 74% 30.02 in 10.0 mi West 9.2 mph - N/A Rain Light Freezing Rain
1:29 PM 21.2 °F 9.5 °F 15.8 °F 80% 30.03 in 10.0 mi West 11.5 mph - N/A Rain Light Freezing Rain
1:47 PM 21.2 °F 8.3 °F 14.0 °F 74% 30.02 in 10.0 mi West 13.8 mph - N/A Rain Light Freezing Rain
2:14 PM 23.0 °F 12.4 °F 14.0 °F 68% 30.01 in 10.0 mi West 10.4 mph - N/A   Clear
2:34 PM 24.8 °F 12.9 °F 14.0 °F 64% 30.02 in 10.0 mi West 13.8 mph - N/A   Scattered Clouds
2:54 PM 23.0 °F 11.7 °F 14.0 °F 68% 30.04 in 10.0 mi West 11.5 mph - N/A   Scattered Clouds
3:14 PM 21.2 °F 8.9 °F 12.2 °F 68% 30.03 in 10.0 mi WSW 12.7 mph - N/A   Partly Cloudy
3:34 PM 23.0 °F 11.7 °F 12.2 °F 63% 30.03 in 10.0 mi WSW 11.5 mph - N/A   Clear
3:54 PM 23.0 °F 11.7 °F 12.2 °F 63% 30.03 in 10.0 mi West 11.5 mph - N/A   Clear
4:14 PM 23.0 °F 13.9 °F 12.2 °F 63% 30.04 in 10.0 mi WSW 8.1 mph - N/A   Clear
4:33 PM 21.2 °F 9.5 °F 12.2 °F 68% 30.05 in 10.0 mi SW 11.5 mph - N/A   Mostly Cloudy
4:54 PM 22.1 °F 12.0 °F 13.1 °F 68% 30.05 in 10.0 mi WSW 9.2 mph - N/A   Overcast
5:14 PM 21.2 °F 11.7 °F 14.0 °F 74% 30.07 in 10.0 mi SSW 8.1 mph - N/A   Overcast
5:34 PM 21.2 °F 10.1 °F 14.0 °F 74% 30.09 in 10.0 mi SW 10.4 mph - N/A   Overcast
5:54 PM 21.0 °F 8.6 °F 14.0 °F 74% 30.10 in 10.0 mi SW 12.7 mph - N/A Rain Light Freezing Rain
6:13 PM 21.2 °F 10.1 °F 14.0 °F 74% 30.11 in 10.0 mi SW 10.4 mph - N/A Rain Light Freezing Rain
6:31 PM 21.2 °F 10.1 °F 15.8 °F 80% 30.12 in 6.0 mi WSW 10.4 mph - N/A Snow Light Snow
6:39 PM 21.2 °F 12.6 °F 15.8 °F 80% 30.13 in 7.0 mi WSW 6.9 mph - N/A Snow Light Snow
7:14 PM 21.2 °F 11.7 °F 15.8 °F 80% 30.13 in 10.0 mi WSW 8.1 mph - N/A Rain Light Freezing Rain
7:34 PM 21.2 °F 10.1 °F 15.8 °F 80% 30.13 in 9.0 mi WSW 10.4 mph - N/A Snow Light Snow
7:54 PM 21.2 °F 11.7 °F 14.0 °F 74% 30.14 in 10.0 mi WSW 8.1 mph - N/A Rain Light Freezing Rain
8:14 PM 19.4 °F 9.5 °F 14.0 °F 80% 30.14 in 10.0 mi SW 8.1 mph - N/A Rain Light Freezing Rain
8:34 PM 19.4 °F 8.6 °F 12.2 °F 74% 30.14 in 10.0 mi SW 9.2 mph - N/A   Overcast
8:54 PM 19.4 °F 9.5 °F 12.2 °F 74% 30.16 in 10.0 mi SW 8.1 mph - N/A   Overcast
9:14 PM 19.4 °F 7.9 °F 12.2 °F 74% 30.16 in 10.0 mi SW 10.4 mph - N/A   Overcast
9:34 PM 19.4 °F 7.9 °F 12.2 °F 74% 30.16 in 10.0 mi SW 10.4 mph - N/A   Overcast
9:53 PM 17.6 °F 5.7 °F 12.2 °F 79% 30.16 in 10.0 mi SW 10.4 mph - N/A   Overcast
10:14 PM 17.6 °F 6.4 °F 10.4 °F 73% 30.16 in 10.0 mi WSW 9.2 mph - N/A   Overcast
10:34 PM 17.6 °F 5.0 °F 10.4 °F 73% 30.17 in 10.0 mi SW 11.5 mph - N/A   Overcast
10:54 PM 17.1 °F 5.8 °F 10.0 °F 74% 30.17 in 10.0 mi SW 9.2 mph - N/A   Overcast
11:14 PM 17.6 °F 6.4 °F 10.4 °F 73% 30.17 in 10.0 mi SW 9.2 mph - N/A   Overcast
11:33 PM 15.8 °F 2.7 °F 10.4 °F 79% 30.17 in 10.0 mi SW 11.5 mph - N/A   Overcast
11:54 PM 16.2 °F 2.5 °F 9.1 °F 74% 30.17 in 10.0 mi SW 12.7 mph - N/A   Overcast